sat.trackr.live / text

‹ back to catalog

STARLINK-35661

NORAD 66387 · 2025-257H

PAYLOAD ACTIVE UNKNOWN

§ Identity

Operator
Country
US
Launch date
2025-11-09
Launch site
AFETR
Launch vehicle
Mass (kg)
RCS (m²)

Purposes: comms

External: N2YO · Heavens-Above · Gunter

§ Orbital elements

Epoch: 2026-05-25T04:47:03.382944Z

Period
93.85 min
Inclination
53.1586°
Eccentricity
0.0001289
Mean motion
15.34409356 rev/d
Perigee alt
461.8 km
Apogee alt
463.6 km
Semi-major
6,840.8 km
B*
4.9665e-4
RAAN
220.5012°
Arg perigee
75.2584°
Mean anomaly
284.8562°
Rev number
3,146

§ Raw data

STARLINK-356611 66387U 25257H   26145.19934471  .00016446  00000+0  49665-3 0  99902 66387  53.1586 220.5012 0001289  75.2584 284.8562 15.34409356 31462

JSON: /api/v1/satellites/66387 · /tle

For live sub-satellite position, see the globe view (requires WebGL).

§ Visibility from observer

Set your observer location to see the next 7 days of passes ≥ 10°. The values pass through the URL so the page stays shareable.

No JS? Fill the form by hand. The geolocation button needs JavaScript.